Lancaster, OH

4:33 AM EST on November 20, 2017 (GMT -0500)
Fairfield County

Weather History for KLHQ - November, 2014

Change the Weather History Date:

Thursday, November 20, 2014

  Actual Average Record
Temperature  
Mean Temperature 26 °F -  
Max Temperature 30 °F 52 °F 74 °F (1985)
Min Temperature 21 °F 32 °F 15 °F (1969)
Degree Days  
Heating Degree Days 40    
Moisture  
Dew Point 15 °F    
Average Humidity 64    
Maximum Humidity 72    
Minimum Humidity 57    
Precipitation  
Precipitation 0.00 in - - ()
Sea Level Pressure  
Sea Level Pressure 30.13 in    
Wind  
Wind Speed 11 mph (West)    
Max Wind Speed 20 mph    
Max Gust Speed 26 mph    
Visibility 10 miles    
Events      
Averages and records for this station are not official NWS values.
T = Trace of Precipitation, MM = Missing Value Source: NWS Daily Summary

Daily Weather History Graph

Daily Weather History Graph

Search for Another Location

Airport or City:

Trip Planner

Search our weather history database for the weather conditions in past years. The results will help you decide how hot, cold, wet, or windy it might be!

Date:

Astronomy

Nov. 20, 2014 Rise Set
Actual Time 7:20 AM EST 5:11 PM EST
Civil Twilight 6:51 AM EST 5:40 PM EST
Nautical Twilight 6:18 AM EST 6:13 PM EST
Astronomical Twilight 5:46 AM EST 6:45 PM EST
Moon 5:15 AM EST 4:14 PM EST
Length of Visible Light 10h 48m
Length of Day
9h 50m
Waning Crescent, 4% of the Moon is Illuminated
Nov 20
Waning Crescent
Nov 22
New
Nov 29
First Quarter
Dec 6
Full
Dec 14
Last Quarter

Hourly Weather History & Observations

Time (EST) Temp. Windchill Dew Point Humidity Pressure Visibility Wind Dir Wind Speed Gust Speed Precip Events Conditions
12:53 AM 30.0 °F 21.1 °F 19.9 °F 66% 30.04 in 10.0 mi WSW 10.4 mph - N/A   Mostly Cloudy
1:53 AM 30.0 °F 21.1 °F 21.0 °F 69% 30.04 in 10.0 mi WSW 10.4 mph - N/A   Overcast
2:33 AM 28.9 °F 19.8 °F 19.9 °F 69% 30.02 in 10.0 mi WNW 10.4 mph - N/A   Overcast
2:45 AM 28.9 °F 19.2 °F 19.9 °F 69% 30.02 in 10.0 mi WNW 11.5 mph - N/A   Overcast
2:53 AM 28.0 °F 20.0 °F 19.9 °F 72% 30.06 in 9.0 mi WNW 8.1 mph - N/A   Overcast
3:53 AM 27.0 °F 15.2 °F 17.1 °F 66% 30.06 in 10.0 mi West 15.0 mph 21.9 mph N/A   Overcast
4:53 AM 26.1 °F 18.4 °F 16.0 °F 66% 30.06 in 10.0 mi West 6.9 mph - N/A   Overcast
5:04 AM 25.0 °F 14.2 °F 16.0 °F 69% 30.04 in 10.0 mi NW 11.5 mph 18.4 mph N/A   Overcast
5:53 AM 24.1 °F 15.2 °F 14.0 °F 65% 30.08 in 10.0 mi West 8.1 mph - N/A   Overcast
6:53 AM 24.1 °F 16.0 °F 14.0 °F 65% 30.09 in 10.0 mi West 6.9 mph - 0.00 in   Overcast
7:53 AM 24.1 °F 13.7 °F 12.9 °F 62% 30.12 in 10.0 mi West 10.4 mph - N/A   Overcast
8:53 AM 24.1 °F 11.0 °F 12.0 °F 60% 30.14 in 10.0 mi West 16.1 mph 23.0 mph N/A   Overcast
9:53 AM 24.1 °F 11.5 °F 10.9 °F 57% 30.15 in 10.0 mi West 15.0 mph 24.2 mph N/A   Overcast
10:53 AM 25.0 °F 12.6 °F 12.0 °F 58% 30.16 in 10.0 mi West 15.0 mph - N/A   Mostly Cloudy
11:53 AM 26.1 °F 14.5 °F 14.0 °F 60% 30.15 in 10.0 mi West 13.8 mph 21.9 mph N/A   Overcast
12:53 PM 27.0 °F 15.2 °F 15.1 °F 61% 30.13 in 10.0 mi WSW 15.0 mph 25.3 mph N/A   Overcast
1:53 PM 28.0 °F 14.9 °F 15.1 °F 58% 30.13 in 10.0 mi WSW 19.6 mph 26.5 mph N/A   Mostly Cloudy
2:53 PM 28.0 °F 18.6 °F 15.1 °F 58% 30.13 in 10.0 mi WSW 10.4 mph - N/A   Mostly Cloudy
3:53 PM 28.0 °F 17.5 °F 15.1 °F 58% 30.13 in 10.0 mi West 12.7 mph - N/A   Mostly Cloudy
4:53 PM 27.0 °F 18.7 °F 15.1 °F 61% 30.14 in 10.0 mi WSW 8.1 mph - N/A   Clear
5:53 PM 25.0 °F 17.1 °F 14.0 °F 63% 30.16 in 10.0 mi West 6.9 mph - N/A   Clear
6:53 PM 23.0 °F 14.7 °F 12.9 °F 65% 30.19 in 10.0 mi West 6.9 mph - N/A   Partly Cloudy
7:53 PM 23.0 °F 17.0 °F 12.9 °F 65% 30.20 in 10.0 mi WSW 4.6 mph - N/A   Clear
8:53 PM 24.1 °F 17.0 °F 14.0 °F 65% 30.22 in 10.0 mi West 5.8 mph - N/A   Overcast
9:53 PM 23.0 °F 13.9 °F 12.9 °F 65% 30.24 in 10.0 mi West 8.1 mph - N/A   Clear
10:53 PM 21.9 °F 11.7 °F 12.0 °F 66% 30.25 in 10.0 mi West 9.2 mph - N/A   Partly Cloudy
11:53 PM 23.0 °F 12.4 °F 12.9 °F 65% 30.26 in 10.0 mi West 10.4 mph - N/A   Mostly Cloudy